Clearfield, PA

4:18 AM EDT on October 18, 2017 (GMT -0400)
Clearfield-Lawrence

Weather History for KFIG - February, 2014

Change the Weather History Date:

Tuesday, February 11, 2014

  Actual Average (KDUJ) Record (KDUJ)
Temperature  
Mean Temperature 9 °F -  
Max Temperature 18 °F 32 °F 53 °F (2013)
Min Temperature -2 °F 15 °F -10 °F (1979)
Degree Days  
Heating Degree Days 56    
Moisture  
Dew Point 2 °F    
Average Humidity 79    
Maximum Humidity 95    
Minimum Humidity 52    
Precipitation  
Precipitation 0.00 in - - ()
Sea Level Pressure  
Sea Level Pressure 30.37 in    
Wind  
Wind Speed 4 mph (West)    
Max Wind Speed 10 mph    
Max Gust Speed -    
Visibility 6 miles    
Events Fog    
Averages and records for this station are not official NWS values.
T = Trace of Precipitation, MM = Missing Value Source: NWS Daily Summary

Daily Weather History Graph

Daily Weather History Graph

Search for Another Location

Airport or City:

Trip Planner

Search our weather history database for the weather conditions in past years. The results will help you decide how hot, cold, wet, or windy it might be!

Date:

Astronomy

Feb. 11, 2014 Rise Set
Actual Time 7:13 AM EST 5:43 PM EST
Civil Twilight 6:44 AM EST 6:11 PM EST
Nautical Twilight 6:12 AM EST 6:43 PM EST
Astronomical Twilight 5:40 AM EST 7:15 PM EST
Moon 3:01 PM EST (2/11) 4:49 AM EST (2/11)
Length of Visible Light 11h 26m
Length of Day
10h 29m
Waxing Gibbous, 90% of the Moon is Illuminated
Feb 11
Waxing Gibbous
Feb 14
Full
Feb 22
Last Quarter
Mar 1
New
Mar 8
First Quarter

Hourly Weather History & Observations

Time (EST) Temp. Windchill Dew Point Humidity Pressure Visibility Wind Dir Wind Speed Gust Speed Precip Events Conditions
12:54 AM 12.0 °F - 3.0 °F 67% 30.33 in 10.0 mi Calm Calm - N/A   Overcast
1:54 AM 10.9 °F 4.7 °F 3.9 °F 73% 30.34 in 9.0 mi West 3.5 mph - N/A   Overcast
2:54 AM 10.9 °F 4.7 °F 3.9 °F 73% 30.34 in 10.0 mi West 3.5 mph - N/A   Overcast
3:54 AM 10.0 °F 1.8 °F 3.9 °F 76% 30.34 in 10.0 mi West 4.6 mph - N/A   Overcast
4:46 AM 8.1 °F -2.0 °F 3.0 °F 80% 30.26 in 10.0 mi WNW 5.8 mph - N/A   Mostly Cloudy
4:54 AM 8.1 °F -2.0 °F 3.0 °F 80% 30.35 in 10.0 mi WNW 5.8 mph - N/A   Mostly Cloudy
5:21 AM 8.1 °F -0.5 °F 3.0 °F 80% 30.26 in 10.0 mi WNW 4.6 mph - N/A   Scattered Clouds
5:54 AM 7.0 °F - 1.9 °F 80% 30.37 in 10.0 mi Calm Calm - N/A   Clear
6:31 AM 3.9 °F - -0.0 °F 84% 30.28 in 6.0 mi Calm Calm - N/A   Mostly Cloudy
6:40 AM 3.0 °F -4.4 °F 1.0 °F 91% 30.28 in 2.5 mi SW 3.5 mph - N/A   Overcast
6:54 AM 3.9 °F -5.3 °F 1.9 °F 91% 30.39 in 1.2 mi SSW 4.6 mph - N/A   Overcast
7:04 AM 3.9 °F -5.3 °F 1.9 °F 91% 30.29 in 0.8 mi SSW 4.6 mph - N/A   Mist
7:11 AM 3.0 °F -6.4 °F 1.9 °F 95% 30.29 in 0.2 mi SW 4.6 mph - N/A Fog Light Freezing Fog
7:22 AM 3.0 °F - 1.0 °F 91% 30.30 in 0.8 mi Calm Calm - N/A   Overcast
7:26 AM 1.9 °F -7.6 °F -0.0 °F 91% 30.30 in 2.0 mi SSW 4.6 mph - N/A   Overcast
7:29 AM 1.9 °F -7.6 °F -0.0 °F 91% 30.30 in 3.0 mi SSW 4.6 mph - N/A   Overcast
7:38 AM 3.0 °F -6.4 °F 1.0 °F 91% 30.30 in 1.5 mi SSW 4.6 mph - N/A   Overcast
7:41 AM 3.0 °F -4.4 °F 1.0 °F 91% 30.31 in 0.8 mi SSW 3.5 mph - N/A   Overcast
7:49 AM 3.2 °F -4.2 °F 1.4 °F 92% 30.31 in 1.0 mi SSW 3.5 mph - N/A   Overcast
7:54 AM 3.0 °F -4.4 °F 1.0 °F 91% 30.42 in 1.5 mi SSW 3.5 mph - N/A   Overcast
7:59 AM 3.0 °F -4.4 °F 1.0 °F 91% 30.31 in 2.0 mi SSW 3.5 mph - N/A   Overcast
8:07 AM 3.0 °F -4.4 °F 1.0 °F 91% 30.32 in 1.2 mi SSW 3.5 mph - N/A   Overcast
8:19 AM 3.0 °F -4.4 °F 1.0 °F 91% 30.33 in 3.0 mi South 3.5 mph - N/A   Overcast
8:30 AM 3.0 °F -4.4 °F 1.0 °F 91% 30.33 in 2.5 mi SW 3.5 mph - N/A   Overcast
8:43 AM 3.9 °F -3.4 °F 1.9 °F 91% 30.33 in 1.8 mi SW 3.5 mph - N/A   Overcast
8:49 AM 5.0 °F -2.1 °F 3.2 °F 92% 30.34 in 2.0 mi SW 3.5 mph - N/A   Overcast
8:54 AM 5.0 °F -2.1 °F 3.9 °F 95% 30.44 in 2.5 mi SW 3.5 mph - N/A   Overcast
9:15 AM 8.1 °F - 7.0 °F 95% 30.34 in 3.0 mi Calm Calm - N/A   Overcast
9:47 AM 10.0 °F - 6.1 °F 84% 30.34 in 6.0 mi Calm Calm - N/A   Overcast
9:54 AM 10.9 °F - 5.0 °F 77% 30.44 in 6.0 mi Calm Calm - N/A   Haze
10:18 AM 10.9 °F 4.7 °F 5.0 °F 77% 30.35 in 9.0 mi South 3.5 mph - N/A   Scattered Clouds
10:54 AM 15.1 °F - 5.0 °F 64% 30.44 in 10.0 mi North - - N/A   Mostly Cloudy
11:07 AM 15.1 °F 5.2 °F 1.9 °F 56% 30.35 in 10.0 mi West 6.9 mph - 0.00 in   Mostly Cloudy
11:54 AM 14.0 °F 2.0 °F 1.9 °F 59% 30.43 in 10.0 mi WNW 9.2 mph - 0.00 in   Mostly Cloudy
12:54 PM 16.0 °F 3.6 °F 3.0 °F 57% 30.41 in 10.0 mi NW 10.4 mph - 0.00 in   Scattered Clouds
1:54 PM 18.0 °F 6.9 °F 3.0 °F 52% 30.39 in 10.0 mi WNW 9.2 mph - 0.00 in   Partly Cloudy
2:54 PM 17.1 °F 5.8 °F 3.0 °F 54% 30.40 in 10.0 mi NW 9.2 mph - 0.00 in   Partly Cloudy
3:54 PM 18.0 °F 7.7 °F 3.0 °F 52% 30.41 in 10.0 mi NW 8.1 mph - 0.00 in   Clear
4:54 PM 16.0 °F 4.4 °F 1.9 °F 54% 30.42 in 10.0 mi NNW 9.2 mph - 0.00 in   Partly Cloudy
5:54 PM 14.0 °F 5.1 °F 1.0 °F 56% 30.45 in 10.0 mi NNW 5.8 mph - N/A   Partly Cloudy
6:54 PM 10.9 °F 0.2 °F -0.0 °F 61% 30.48 in 10.0 mi NNW 6.9 mph - N/A   Clear
7:54 PM 8.1 °F -2.0 °F -0.0 °F 70% 30.50 in 10.0 mi North 5.8 mph - N/A   Clear
8:54 PM 5.0 °F -6.9 °F -2.0 °F 73% 30.51 in 10.0 mi NNW 6.9 mph - N/A   Clear
9:54 PM 1.9 °F -9.2 °F -2.9 °F 80% 30.52 in 10.0 mi North 5.8 mph - N/A   Clear
10:54 PM -0.0 °F -11.6 °F -4.0 °F 83% 30.51 in 10.0 mi NNW 5.8 mph - N/A   Clear
11:54 PM -2.0 °F -16.6 °F -7.1 °F 79% 30.51 in 10.0 mi North 8.1 mph - N/A   Clear